EWG14WL LEPA-EDDG

Flight info

Callsign EWG14WL
Flight time 2h 16m
Altitude 38000
Route GALAT DCT RODRA DCT VNV DCT ANTON DCT BISES DCT SADUR DCT CAVES DCT LATRO DCT OLOXO DCT OKABI DCT TOU DCT ADABI DCT BOKNO DCT DIBES DCT VIQAQ DCT TSU DCT OQQAL DCT RANUX/N0442F370 DCT VALEK DCT LUTAX DCT DIK T856 DEPOK/N0365F230 T856 QATJA N853 HMM HMM1A
Aircraft A320/M-SDE3FGHIRWY/LB1

Departure

Time 2026-04-21 12:09
Airport Palma de Mallorca Airport (LEPA)

Arrival

Time 2026-04-21 14:26
Airport Münster Osnabrück Airport (EDDG)
Time Latitude Longitude Altitude Speed Heading
2026-04-21 11:48 39.55285 2.73293 46 ft 0 kts 197°
2026-04-21 12:00 39.55296 2.73297 46 ft 2 kts 187°
2026-04-21 12:00 39.55310 2.73300 46 ft 2 kts 193°
2026-04-21 12:00 39.55325 2.73304 46 ft 2 kts 191°
2026-04-21 12:01 39.55340 2.73308 46 ft 2 kts 191°
2026-04-21 12:01 39.55354 2.73311 46 ft 2 kts 191°
2026-04-21 12:01 39.55369 2.73315 46 ft 2 kts 191°
2026-04-21 12:01 39.55380 2.73318 46 ft 0 kts 189°
2026-04-21 12:02 39.55384 2.73320 46 ft 0 kts 238°
2026-04-21 12:02 39.55386 2.73324 46 ft 0 kts 237°
2026-04-21 12:04 39.55380 2.73311 46 ft 2 kts 237°
2026-04-21 12:05 39.55359 2.73269 46 ft 8 kts 237°
2026-04-21 12:05 39.55320 2.73189 46 ft 12 kts 238°
2026-04-21 12:05 39.55276 2.73075 46 ft 15 kts 269°
2026-04-21 12:05 39.55355 2.72983 46 ft 16 kts 334°
2026-04-21 12:06 39.55442 2.73055 46 ft 17 kts 58°
2026-04-21 12:06 39.55508 2.73192 46 ft 18 kts 59°
2026-04-21 12:06 39.55580 2.73345 47 ft 20 kts 58°
2026-04-21 12:06 39.55656 2.73504 47 ft 21 kts 58°
2026-04-21 12:07 39.55736 2.73675 47 ft 22 kts 59°
2026-04-21 12:07 39.55820 2.73852 48 ft 23 kts 58°
2026-04-21 12:07 39.55905 2.74033 48 ft 24 kts 59°
2026-04-21 12:07 39.55995 2.74209 48 ft 22 kts 44°
2026-04-21 12:08 39.56124 2.74327 48 ft 22 kts 34°
2026-04-21 12:08 39.56220 2.74348 49 ft 12 kts 319°
2026-04-21 12:08 39.56216 2.74247 49 ft 13 kts 238°
2026-04-21 12:08 39.56081 2.73961 48 ft 73 kts 238°
2026-04-21 12:09 39.55694 2.73141 47 ft 138 kts 238°
2026-04-21 12:09 39.55113 2.71917 350 ft 165 kts 238°
2026-04-21 12:09 39.54532 2.70688 1063 ft 163 kts 237°
2026-04-21 12:09 39.53934 2.69468 1753 ft 164 kts 236°
2026-04-21 12:10 39.53292 2.68199 2133 ft 179 kts 235°
2026-04-21 12:10 39.52564 2.66779 2486 ft 196 kts 234°
2026-04-21 12:10 39.51776 2.65273 2885 ft 212 kts 234°
2026-04-21 12:10 39.50918 2.63613 3294 ft 230 kts 235°
2026-04-21 12:11 39.50053 2.61907 4064 ft 231 kts 236°
2026-04-21 12:11 39.49176 2.60173 4848 ft 232 kts 236°
2026-04-21 12:11 39.48288 2.58424 5595 ft 235 kts 236°
2026-04-21 12:11 39.47391 2.56659 6352 ft 238 kts 236°
2026-04-21 12:12 39.46487 2.54884 7121 ft 240 kts 236°
2026-04-21 12:12 39.45575 2.53088 7899 ft 242 kts 238°
2026-04-21 12:12 39.44937 2.51071 8486 ft 255 kts 265°
2026-04-21 12:12 39.45231 2.48746 8957 ft 273 kts 296°
2026-04-21 12:13 39.46453 2.46854 9426 ft 288 kts 324°
2026-04-21 12:13 39.48151 2.45474 10197 ft 292 kts 327°
2026-04-21 12:13 39.49890 2.44015 10720 ft 304 kts 326°
2026-04-21 12:13 39.51690 2.42454 11348 ft 314 kts 325°
2026-04-21 12:14 39.53483 2.40885 12102 ft 316 kts 325°
2026-04-21 12:14 39.55338 2.39324 12904 ft 319 kts 328°
2026-04-21 12:14 39.57240 2.37883 13637 ft 321 kts 328°
2026-04-21 12:14 39.59185 2.36435 14326 ft 324 kts 328°
2026-04-21 12:15 39.61149 2.34973 15002 ft 327 kts 328°
2026-04-21 12:15 39.63119 2.33506 15675 ft 330 kts 328°
2026-04-21 12:15 39.65126 2.32010 16331 ft 333 kts 328°
2026-04-21 12:15 39.67139 2.30506 16966 ft 336 kts 328°
2026-04-21 12:16 39.69147 2.29005 17567 ft 339 kts 328°
2026-04-21 12:16 39.71189 2.27478 18172 ft 342 kts 328°
2026-04-21 12:16 39.73269 2.25921 18761 ft 345 kts 328°
2026-04-21 12:16 39.75334 2.24374 19315 ft 348 kts 327°
2026-04-21 12:17 39.77456 2.22783 19866 ft 351 kts 327°
2026-04-21 12:17 39.79562 2.21202 20407 ft 355 kts 327°
2026-04-21 12:17 39.81701 2.19597 20952 ft 357 kts 327°
2026-04-21 12:17 39.83847 2.17984 21492 ft 360 kts 327°
2026-04-21 12:18 39.86013 2.16355 22026 ft 362 kts 327°
2026-04-21 12:18 39.88220 2.14694 22557 ft 364 kts 327°
2026-04-21 12:18 39.90396 2.13056 23062 ft 367 kts 327°
2026-04-21 12:18 39.92620 2.11380 23560 ft 369 kts 327°
2026-04-21 12:19 39.94829 2.09713 24041 ft 372 kts 327°
2026-04-21 12:19 39.97060 2.08028 24518 ft 374 kts 326°
2026-04-21 12:19 39.99311 2.06326 24990 ft 376 kts 326°
2026-04-21 12:19 40.01597 2.04596 25441 ft 379 kts 326°
2026-04-21 12:20 40.03865 2.02878 25870 ft 381 kts 326°
2026-04-21 12:20 40.06153 2.01145 26284 ft 384 kts 326°
2026-04-21 12:20 40.08499 1.99364 26701 ft 386 kts 326°
2026-04-21 12:20 40.10788 1.97628 27115 ft 388 kts 326°
2026-04-21 12:21 40.13157 1.95886 27529 ft 391 kts 330°
2026-04-21 12:21 40.15678 1.94474 27925 ft 396 kts 339°
2026-04-21 12:21 40.18404 1.93785 28293 ft 402 kts 349°
2026-04-21 12:21 40.21167 1.93310 28677 ft 404 kts 349°
2026-04-21 12:22 40.23960 1.92835 29038 ft 407 kts 349°
2026-04-21 12:22 40.26752 1.92350 29384 ft 409 kts 349°
2026-04-21 12:22 40.29594 1.91846 29734 ft 410 kts 348°
2026-04-21 12:22 40.32415 1.91338 30062 ft 412 kts 348°
2026-04-21 12:23 40.35254 1.90822 30379 ft 414 kts 348°
2026-04-21 12:23 40.38121 1.90299 30692 ft 416 kts 348°
2026-04-21 12:23 40.40986 1.89775 30993 ft 418 kts 348°
2026-04-21 12:23 40.43885 1.89242 31279 ft 420 kts 348°
2026-04-21 12:24 40.46783 1.88709 31548 ft 423 kts 348°
2026-04-21 12:24 40.49697 1.88172 31817 ft 425 kts 348°
2026-04-21 12:24 40.52596 1.87636 32081 ft 427 kts 348°
2026-04-21 12:24 40.55544 1.87091 32355 ft 428 kts 348°
2026-04-21 12:25 40.58476 1.86548 32621 ft 429 kts 348°
2026-04-21 12:25 40.61435 1.86000 32864 ft 431 kts 348°
2026-04-21 12:25 40.64436 1.85444 33105 ft 433 kts 348°
2026-04-21 12:25 40.67396 1.84895 33339 ft 434 kts 348°
2026-04-21 12:26 40.70381 1.84340 33556 ft 436 kts 348°
2026-04-21 12:26 40.73388 1.83782 33765 ft 437 kts 348°
2026-04-21 12:26 40.76393 1.83224 34041 ft 437 kts 348°
2026-04-21 12:26 40.79392 1.82666 34342 ft 436 kts 348°
2026-04-21 12:27 40.82404 1.82105 34636 ft 435 kts 348°
2026-04-21 12:27 40.85373 1.81551 34891 ft 434 kts 348°
2026-04-21 12:27 40.88377 1.80990 35125 ft 433 kts 348°
2026-04-21 12:27 40.91345 1.80436 35338 ft 433 kts 348°
2026-04-21 12:28 40.94307 1.79881 35543 ft 433 kts 348°
2026-04-21 12:28 40.97287 1.79323 35745 ft 433 kts 348°
2026-04-21 12:28 41.00240 1.78769 35936 ft 432 kts 348°
2026-04-21 12:28 41.03213 1.78211 36123 ft 432 kts 348°
2026-04-21 12:29 41.06206 1.77649 36297 ft 433 kts 348°
2026-04-21 12:29 41.09192 1.77088 36448 ft 433 kts 348°
2026-04-21 12:29 41.12187 1.76524 36592 ft 433 kts 348°
2026-04-21 12:29 41.15165 1.75962 36742 ft 434 kts 348°
2026-04-21 12:30 41.18159 1.75398 36909 ft 434 kts 348°
2026-04-21 12:30 41.21117 1.74839 37035 ft 435 kts 348°
2026-04-21 12:30 41.24117 1.74272 37165 ft 436 kts 348°
2026-04-21 12:30 41.27101 1.73709 37304 ft 436 kts 348°
2026-04-21 12:31 41.30113 1.73139 37439 ft 437 kts 348°
2026-04-21 12:31 41.33117 1.72571 37574 ft 437 kts 348°
2026-04-21 12:31 41.36149 1.71997 37698 ft 438 kts 348°
2026-04-21 12:31 41.39133 1.71431 37808 ft 438 kts 348°
2026-04-21 12:32 41.42156 1.70857 37914 ft 438 kts 348°
2026-04-21 12:32 41.48203 1.69706 37944 ft 439 kts 348°
2026-04-21 12:33 41.54207 1.68563 37952 ft 439 kts 348°
2026-04-21 12:33 41.60257 1.67408 37956 ft 439 kts 348°
2026-04-21 12:34 41.66288 1.66255 37955 ft 439 kts 348°
2026-04-21 12:34 41.72344 1.65094 37955 ft 439 kts 348°
2026-04-21 12:35 41.78356 1.63939 37957 ft 438 kts 348°
2026-04-21 12:35 41.84393 1.62779 37958 ft 439 kts 348°
2026-04-21 12:36 41.90409 1.61620 37962 ft 438 kts 348°
2026-04-21 12:36 41.96441 1.60456 37968 ft 438 kts 348°
2026-04-21 12:37 42.02429 1.59296 37973 ft 438 kts 348°
2026-04-21 12:37 42.08465 1.58126 37977 ft 438 kts 348°
2026-04-21 12:38 42.14486 1.56957 37982 ft 437 kts 348°
2026-04-21 12:38 42.20501 1.55786 37991 ft 437 kts 348°
2026-04-21 12:39 42.26479 1.54620 38002 ft 437 kts 348°
2026-04-21 12:39 42.32502 1.53443 38009 ft 438 kts 348°
2026-04-21 12:40 42.38521 1.52263 38012 ft 438 kts 348°
2026-04-21 12:40 42.44521 1.51097 38012 ft 438 kts 349°
2026-04-21 12:41 42.50566 1.50125 38005 ft 438 kts 349°
2026-04-21 12:41 42.56638 1.49170 37998 ft 438 kts 349°
2026-04-21 12:42 42.62678 1.48199 38003 ft 438 kts 349°
2026-04-21 12:42 42.68713 1.47231 38008 ft 438 kts 349°
2026-04-21 12:43 42.74752 1.46262 38012 ft 438 kts 349°
2026-04-21 12:43 42.80800 1.45287 38007 ft 438 kts 349°
2026-04-21 12:44 42.86835 1.44312 37995 ft 438 kts 349°
2026-04-21 12:44 42.92865 1.43335 37979 ft 437 kts 349°
2026-04-21 12:45 42.98884 1.42358 37960 ft 438 kts 349°
2026-04-21 12:45 43.04890 1.41382 37936 ft 438 kts 349°
2026-04-21 12:46 43.10944 1.40396 37923 ft 438 kts 349°
2026-04-21 12:46 43.17011 1.39407 37919 ft 438 kts 349°
2026-04-21 12:47 43.23033 1.38423 37906 ft 437 kts 349°
2026-04-21 12:47 43.29092 1.37430 37892 ft 437 kts 349°
2026-04-21 12:48 43.35074 1.36447 37889 ft 437 kts 349°
2026-04-21 12:48 43.41099 1.35456 37885 ft 437 kts 349°
2026-04-21 12:49 43.47155 1.34457 37884 ft 437 kts 348°
2026-04-21 12:49 43.53169 1.33462 37888 ft 436 kts 348°
2026-04-21 12:50 43.59149 1.32471 37887 ft 435 kts 348°
2026-04-21 12:50 43.65118 1.31481 37890 ft 434 kts 348°
2026-04-21 12:51 43.71095 1.30235 37890 ft 433 kts 345°
2026-04-21 12:51 43.76980 1.28723 37889 ft 433 kts 345°
2026-04-21 12:52 43.82884 1.27189 37882 ft 432 kts 345°
2026-04-21 12:52 43.88776 1.25663 37883 ft 432 kts 345°
2026-04-21 12:53 43.94704 1.24126 37878 ft 431 kts 345°
2026-04-21 12:53 44.00555 1.22606 37879 ft 430 kts 345°
2026-04-21 12:54 44.06441 1.21076 37881 ft 430 kts 345°
2026-04-21 12:54 44.12336 1.19539 37883 ft 431 kts 345°
2026-04-21 12:55 44.18217 1.18004 37888 ft 431 kts 345°
2026-04-21 12:55 44.24075 1.16471 37892 ft 431 kts 345°
2026-04-21 12:56 44.29971 1.14924 37894 ft 430 kts 345°
2026-04-21 12:56 44.35839 1.13381 37901 ft 430 kts 345°
2026-04-21 12:57 44.41703 1.11836 37899 ft 430 kts 345°
2026-04-21 12:57 44.47543 1.10296 37901 ft 429 kts 345°
2026-04-21 12:58 44.53376 1.08755 37900 ft 429 kts 345°
2026-04-21 12:58 44.59254 1.07197 37900 ft 428 kts 345°
2026-04-21 12:59 44.65075 1.05652 37900 ft 428 kts 345°
2026-04-21 12:59 44.70939 1.04092 37900 ft 428 kts 345°
2026-04-21 13:00 44.76757 1.02543 37897 ft 427 kts 345°
2026-04-21 13:00 44.82554 1.00995 37897 ft 427 kts 345°
2026-04-21 13:01 44.88382 0.99434 37903 ft 426 kts 345°
2026-04-21 13:01 44.94195 0.97874 37898 ft 426 kts 345°
2026-04-21 13:02 45.00038 0.96302 37898 ft 426 kts 345°
2026-04-21 13:02 45.08714 0.93963 37908 ft 426 kts 345°
2026-04-21 13:03 45.14555 0.92388 37924 ft 426 kts 345°
2026-04-21 13:03 45.20347 0.90819 37927 ft 426 kts 345°
2026-04-21 13:04 45.26165 0.89241 37925 ft 426 kts 345°
2026-04-21 13:04 45.31959 0.87667 37929 ft 425 kts 345°
2026-04-21 13:05 45.37744 0.86091 37926 ft 425 kts 345°
2026-04-21 13:05 45.43548 0.84507 37929 ft 425 kts 344°
2026-04-21 13:06 45.49350 0.82918 37933 ft 425 kts 345°
2026-04-21 13:06 45.55099 0.81343 37937 ft 424 kts 345°
2026-04-21 13:07 45.60881 0.79753 37938 ft 424 kts 345°
2026-04-21 13:07 45.66700 0.78152 37950 ft 424 kts 345°
2026-04-21 13:08 45.72464 0.76562 37957 ft 425 kts 345°
2026-04-21 13:08 45.78252 0.74963 37957 ft 424 kts 344°
2026-04-21 13:09 45.84027 0.73364 37955 ft 423 kts 345°
2026-04-21 13:09 45.89774 0.71766 37954 ft 423 kts 345°
2026-04-21 13:10 45.95559 0.70157 37957 ft 424 kts 345°
2026-04-21 13:10 46.01330 0.68548 37966 ft 423 kts 345°
2026-04-21 13:11 46.07094 0.66938 37962 ft 424 kts 344°
2026-04-21 13:11 46.12877 0.65317 37960 ft 423 kts 345°
2026-04-21 13:12 46.18630 0.63703 37964 ft 422 kts 345°
2026-04-21 13:12 46.24368 0.62090 37979 ft 422 kts 345°
2026-04-21 13:13 46.30123 0.60467 37989 ft 421 kts 345°
2026-04-21 13:13 46.35837 0.58852 37983 ft 421 kts 345°
2026-04-21 13:14 46.41592 0.57220 37981 ft 422 kts 345°
2026-04-21 13:14 46.47317 0.55605 37987 ft 422 kts 345°
2026-04-21 13:15 46.53186 0.54624 37997 ft 426 kts 353°
2026-04-21 13:15 46.59110 0.54750 38009 ft 431 kts 360°
2026-04-21 13:16 46.65082 0.56025 38003 ft 436 kts
2026-04-21 13:16 46.70975 0.57942 38008 ft 436 kts
2026-04-21 13:17 46.76883 0.59912 38009 ft 436 kts
2026-04-21 13:17 46.82751 0.61864 38020 ft 435 kts
2026-04-21 13:18 46.88634 0.63817 38025 ft 435 kts
2026-04-21 13:18 46.94530 0.65778 38015 ft 434 kts
2026-04-21 13:19 47.00350 0.67981 38029 ft 437 kts 12°
2026-04-21 13:19 47.06059 0.71126 38037 ft 442 kts 18°
2026-04-21 13:20 47.11561 0.75264 38040 ft 447 kts 25°
2026-04-21 13:20 47.16879 0.79977 38042 ft 447 kts 26°
2026-04-21 13:21 47.22149 0.84710 38050 ft 446 kts 26°
2026-04-21 13:21 47.27428 0.89448 38054 ft 446 kts 26°
2026-04-21 13:22 47.32698 0.94180 38055 ft 445 kts 26°
2026-04-21 13:22 47.37947 0.98903 38062 ft 444 kts 26°
2026-04-21 13:23 47.43225 1.03661 38061 ft 445 kts 26°
2026-04-21 13:23 47.48487 1.08420 38057 ft 445 kts 26°
2026-04-21 13:24 47.53816 1.12888 38054 ft 442 kts 22°
2026-04-21 13:24 47.59253 1.17126 38068 ft 442 kts 22°
2026-04-21 13:25 47.64664 1.21344 38073 ft 442 kts 22°
2026-04-21 13:25 47.70092 1.25596 38065 ft 442 kts 22°
2026-04-21 13:26 47.75517 1.29861 38068 ft 442 kts 22°
2026-04-21 13:26 47.80929 1.34124 38079 ft 441 kts 22°
2026-04-21 13:27 47.86326 1.38388 38076 ft 441 kts 22°
2026-04-21 13:27 47.91686 1.42631 38072 ft 441 kts 22°
2026-04-21 13:28 47.97085 1.46915 38090 ft 441 kts 22°
2026-04-21 13:28 48.02479 1.51209 38082 ft 441 kts 22°
2026-04-21 13:29 48.07878 1.55516 38085 ft 441 kts 22°
2026-04-21 13:29 48.13290 1.59841 38092 ft 440 kts 22°
2026-04-21 13:30 48.18682 1.64163 38088 ft 440 kts 22°
2026-04-21 13:30 48.24051 1.68476 38107 ft 441 kts 22°
2026-04-21 13:31 48.29452 1.72823 38116 ft 441 kts 23°
2026-04-21 13:31 48.34826 1.77161 38100 ft 441 kts 23°
2026-04-21 13:32 48.40220 1.81527 38114 ft 440 kts 23°
2026-04-21 13:32 48.45588 1.85879 38113 ft 440 kts 23°
2026-04-21 13:33 48.50963 1.90251 38122 ft 441 kts 23°
2026-04-21 13:33 48.56329 1.94625 38113 ft 442 kts 23°
2026-04-21 13:34 48.61743 1.99051 38123 ft 441 kts 23°
2026-04-21 13:34 48.67128 2.03469 38126 ft 442 kts 24°
2026-04-21 13:35 48.72054 2.09123 38135 ft 454 kts 40°
2026-04-21 13:35 48.75887 2.16756 38138 ft 464 kts 56°
2026-04-21 13:36 48.78277 2.25882 38154 ft 472 kts 70°
2026-04-21 13:36 48.79956 2.35426 38143 ft 472 kts 71°
2026-04-21 13:37 48.81631 2.45042 38148 ft 472 kts 70°
2026-04-21 13:37 48.83317 2.54565 38150 ft 471 kts 70°
2026-04-21 13:38 48.85021 2.64186 38125 ft 472 kts 70°
2026-04-21 13:38 48.86709 2.73778 38153 ft 472 kts 71°
2026-04-21 13:39 48.88391 2.83396 38128 ft 472 kts 71°
2026-04-21 13:39 48.90058 2.92991 38128 ft 473 kts 71°
2026-04-21 13:40 48.91715 3.02583 38124 ft 472 kts 71°
2026-04-21 13:40 48.93370 3.12201 38147 ft 472 kts 71°
2026-04-21 13:41 48.95011 3.21788 38112 ft 471 kts 71°
2026-04-21 13:41 48.96655 3.31465 38138 ft 471 kts 71°
2026-04-21 13:42 48.98276 3.41048 38133 ft 471 kts 71°
2026-04-21 13:42 48.99888 3.50638 38127 ft 471 kts 71°
2026-04-21 13:43 49.01501 3.60279 38129 ft 470 kts 71°
2026-04-21 13:43 49.03105 3.69916 38129 ft 470 kts 72°
2026-04-21 13:44 49.04697 3.79549 38137 ft 471 kts 72°
2026-04-21 13:44 49.06274 3.89133 38135 ft 470 kts 72°
2026-04-21 13:45 49.07854 3.98805 38144 ft 471 kts 72°
2026-04-21 13:45 49.09422 4.08445 38152 ft 471 kts 72°
2026-04-21 13:46 49.10991 4.18144 38155 ft 470 kts 72°
2026-04-21 13:46 49.12547 4.27843 38163 ft 470 kts 72°
2026-04-21 13:47 49.14299 4.37337 38138 ft 468 kts 66°
2026-04-21 13:47 49.16656 4.46522 38132 ft 465 kts 63°
2026-04-21 13:48 49.19136 4.55597 38141 ft 463 kts 63°
2026-04-21 13:48 49.21589 4.64635 38154 ft 463 kts 63°
2026-04-21 13:49 49.24052 4.73774 38133 ft 464 kts 64°
2026-04-21 13:49 49.26480 4.82827 38144 ft 464 kts 64°
2026-04-21 13:50 49.28928 4.92001 38154 ft 465 kts 64°
2026-04-21 13:50 49.31349 5.01109 38169 ft 463 kts 64°
2026-04-21 13:51 49.33760 5.10214 38157 ft 463 kts 64°
2026-04-21 13:51 49.36158 5.19303 38144 ft 462 kts 64°
2026-04-21 13:52 49.38549 5.28395 38147 ft 462 kts 64°
2026-04-21 13:52 49.40929 5.37492 38154 ft 462 kts 64°
2026-04-21 13:53 49.43323 5.46679 38157 ft 463 kts 64°
2026-04-21 13:53 49.45696 5.55811 38147 ft 462 kts 64°
2026-04-21 13:54 49.48053 5.64904 38151 ft 461 kts 63°
2026-04-21 13:54 49.51073 5.73480 38152 ft 455 kts 51°
2026-04-21 13:55 49.55121 5.80801 38154 ft 449 kts 39°
2026-04-21 13:55 49.60006 5.86683 38159 ft 444 kts 30°
2026-04-21 13:56 49.65177 5.91855 38155 ft 444 kts 29°
2026-04-21 13:56 49.70330 5.96999 38165 ft 444 kts 30°
2026-04-21 13:57 49.75474 6.02181 38171 ft 444 kts 30°
2026-04-21 13:57 49.80652 6.07424 38171 ft 444 kts 30°
2026-04-21 13:58 49.85854 6.12443 38172 ft 442 kts 26°
2026-04-21 13:58 49.91314 6.16637 38165 ft 440 kts 21°
2026-04-21 13:59 49.96882 6.20534 38167 ft 441 kts 21°
2026-04-21 13:59 50.02430 6.24576 38169 ft 441 kts 22°
2026-04-21 14:00 50.07939 6.28624 38177 ft 441 kts 22°
2026-04-21 14:00 50.13511 6.32720 38180 ft 440 kts 22°
2026-04-21 14:01 50.19049 6.36799 38180 ft 440 kts 22°
2026-04-21 14:01 50.24542 6.40855 38177 ft 440 kts 22°
2026-04-21 14:02 50.30059 6.44940 38180 ft 441 kts 22°
2026-04-21 14:03 50.38195 6.51670 38176 ft 443 kts 29°
2026-04-21 14:03 50.43306 6.56920 38180 ft 443 kts 31°
2026-04-21 14:04 50.48436 6.62283 38182 ft 443 kts 31°
2026-04-21 14:04 50.53567 6.67645 38190 ft 444 kts 31°
2026-04-21 14:05 50.58688 6.73006 38196 ft 444 kts 31°
2026-04-21 14:05 50.63824 6.78397 38202 ft 443 kts 30°
2026-04-21 14:05 50.66473 6.80830 37932 ft 444 kts 25°
2026-04-21 14:06 50.69250 6.82736 37319 ft 443 kts 17°
2026-04-21 14:06 50.72209 6.84016 36651 ft 441 kts
2026-04-21 14:06 50.75224 6.84772 35999 ft 441 kts
2026-04-21 14:06 50.78216 6.85687 35354 ft 441 kts 11°
2026-04-21 14:07 50.81214 6.86752 34687 ft 441 kts 12°
2026-04-21 14:07 50.84170 6.87823 34000 ft 441 kts 12°
2026-04-21 14:07 50.87137 6.88890 33432 ft 440 kts 12°
2026-04-21 14:07 50.90113 6.89951 32965 ft 436 kts 12°
2026-04-21 14:08 50.93025 6.90982 32505 ft 432 kts 12°
2026-04-21 14:08 50.95944 6.92009 32035 ft 429 kts 12°
2026-04-21 14:08 50.98849 6.93030 31523 ft 426 kts 12°
2026-04-21 14:08 51.01702 6.94033 30962 ft 422 kts 13°
2026-04-21 14:09 51.04575 6.95042 30389 ft 418 kts 13°
2026-04-21 14:09 51.07380 6.96029 29828 ft 414 kts 13°
2026-04-21 14:09 51.10106 6.96989 29200 ft 413 kts 13°
2026-04-21 14:09 51.13010 6.98014 28148 ft 420 kts 13°
2026-04-21 14:10 51.15876 6.99026 27044 ft 428 kts 14°
2026-04-21 14:10 51.18835 7.00071 26128 ft 428 kts 14°
2026-04-21 14:10 51.21726 7.01092 25055 ft 432 kts 14°
2026-04-21 14:10 51.24670 7.02133 23878 ft 435 kts 14°
2026-04-21 14:11 51.27572 7.03165 22952 ft 431 kts 15°
2026-04-21 14:11 51.30473 7.04196 22119 ft 426 kts 15°
2026-04-21 14:11 51.33339 7.05216 21301 ft 421 kts 15°
2026-04-21 14:11 51.36169 7.06223 20512 ft 416 kts 15°
2026-04-21 14:12 51.38952 7.07216 19731 ft 411 kts 15°
2026-04-21 14:12 51.41732 7.08207 18963 ft 407 kts 15°
2026-04-21 14:12 51.44460 7.09181 18213 ft 402 kts 15°
2026-04-21 14:12 51.47172 7.10151 17468 ft 398 kts 15°
2026-04-21 14:13 51.49839 7.11107 16725 ft 395 kts 15°
2026-04-21 14:13 51.52526 7.12071 15982 ft 391 kts 15°
2026-04-21 14:13 51.55141 7.13011 15281 ft 388 kts 15°
2026-04-21 14:13 51.57740 7.13945 14583 ft 384 kts 15°
2026-04-21 14:14 51.60313 7.14873 13872 ft 381 kts 15°
2026-04-21 14:14 51.62898 7.15805 13152 ft 378 kts 15°
2026-04-21 14:14 51.65450 7.16727 12429 ft 374 kts 15°
2026-04-21 14:14 51.67955 7.17632 11717 ft 369 kts 15°
2026-04-21 14:15 51.70398 7.18512 11008 ft 349 kts 15°
2026-04-21 14:15 51.72684 7.19333 10294 ft 329 kts 15°
2026-04-21 14:15 51.74826 7.20106 9589 ft 312 kts 15°
2026-04-21 14:15 51.76904 7.20857 8988 ft 294 kts 15°
2026-04-21 14:16 51.78829 7.21553 8486 ft 278 kts 15°
2026-04-21 14:16 51.80668 7.22222 7985 ft 274 kts 15°
2026-04-21 14:16 51.82539 7.22907 7530 ft 272 kts 15°
2026-04-21 14:16 51.84334 7.23561 7334 ft 263 kts 15°
2026-04-21 14:17 51.86099 7.24205 7008 ft 260 kts 15°
2026-04-21 14:17 51.87868 7.24850 6628 ft 259 kts 15°
2026-04-21 14:17 51.89610 7.25487 6254 ft 258 kts 15°
2026-04-21 14:17 51.91363 7.26128 5884 ft 256 kts 15°
2026-04-21 14:18 51.93090 7.26758 5526 ft 255 kts 15°
2026-04-21 14:18 51.94808 7.27385 5174 ft 253 kts 15°
2026-04-21 14:18 51.96514 7.28009 4880 ft 249 kts 16°
2026-04-21 14:18 51.98170 7.28615 4627 ft 244 kts 16°
2026-04-21 14:19 51.99797 7.29211 4376 ft 239 kts 16°
2026-04-21 14:19 52.01407 7.29802 4121 ft 234 kts 16°
2026-04-21 14:19 52.02972 7.30375 3962 ft 226 kts 16°
2026-04-21 14:19 52.04440 7.30934 3948 ft 210 kts 21°
2026-04-21 14:20 52.05597 7.32186 3814 ft 199 kts 54°
2026-04-21 14:20 52.06224 7.34162 3569 ft 197 kts 67°
2026-04-21 14:20 52.06700 7.36218 3384 ft 190 kts 69°
2026-04-21 14:20 52.07128 7.38215 3159 ft 185 kts 70°
2026-04-21 14:21 52.07532 7.40151 2960 ft 177 kts 70°
2026-04-21 14:21 52.07917 7.42005 2944 ft 172 kts 71°
2026-04-21 14:21 52.08288 7.43796 2956 ft 160 kts 70°
2026-04-21 14:21 52.08637 7.45474 2894 ft 156 kts 70°
2026-04-21 14:22 52.08984 7.47148 2679 ft 154 kts 70°
2026-04-21 14:22 52.09321 7.48769 2464 ft 153 kts 70°
2026-04-21 14:22 52.09662 7.50414 2260 ft 153 kts 71°
2026-04-21 14:22 52.10000 7.52028 2085 ft 153 kts 70°
2026-04-21 14:23 52.10339 7.53580 1872 ft 146 kts 70°
2026-04-21 14:23 52.10643 7.55129 1654 ft 137 kts 72°
2026-04-21 14:23 52.10927 7.56543 1501 ft 130 kts 69°
2026-04-21 14:23 52.11236 7.57918 1324 ft 129 kts 71°
2026-04-21 14:24 52.11536 7.59280 1156 ft 129 kts 71°
2026-04-21 14:24 52.11819 7.60674 987 ft 129 kts 74°
2026-04-21 14:24 52.12104 7.62042 824 ft 129 kts 69°
2026-04-21 14:24 52.12397 7.63431 652 ft 130 kts 70°
2026-04-21 14:25 52.12696 7.64832 473 ft 130 kts 72°
2026-04-21 14:25 52.12981 7.66222 308 ft 127 kts 72°
2026-04-21 14:25 52.13269 7.67554 168 ft 118 kts 70°
2026-04-21 14:25 52.13482 7.68565 168 ft 70 kts 71°
2026-04-21 14:26 52.13614 7.69193 168 ft 54 kts 74°
2026-04-21 14:26 52.13724 7.69717 168 ft 36 kts 70°
2026-04-21 14:26 52.13752 7.69995 168 ft 19 kts 139°
2026-04-21 14:26 52.13627 7.70005 168 ft 19 kts 216°
2026-04-21 14:27 52.13569 7.69809 168 ft 19 kts 251°
2026-04-21 14:27 52.13524 7.69596 168 ft 20 kts 250°
2026-04-21 14:27 52.13477 7.69378 168 ft 20 kts 251°
2026-04-21 14:27 52.13429 7.69240 168 ft 13 kts 191°
2026-04-21 14:28 52.13337 7.69275 168 ft 14 kts 160°
2026-04-21 14:28 52.13245 7.69326 168 ft 11 kts 163°
2026-04-21 14:28 52.13177 7.69313 168 ft 5 kts 194°
2026-04-21 14:28 52.13158 7.69306 168 ft 0 kts 194°